Weather Roundup
Issued by NWS Chicago, IL

Home | Current Version | Previous Version | Graphics & Text | Print | Product List | Glossary On
Versions: 1 2 3 4 5 6 7 8 9 10 11 12 13 14 15 16 17 18 19 20 21 22 23 24 25 26 27 28 29 30 31 32 33 34 35 36 37 38 39 40 41 42 43 44 45 46 47 48 49 50
000
NZUS59 KLOT 270903
HRRLOT

CHICAGO AREA WEATHER ROUNDUP
NATIONAL WEATHER SERVICE CHICAGO/ROMEOVILLE IL
400 AM CDT SAT AUG 27 2016

NOTE: "FAIR" INDICATES FEW OR NO CLOUDS BELOW 12,000 FEET WITH NO
SIGNIFICANT WEATHER AND/OR OBSTRUCTIONS TO VISIBILITY.

* THESE STATIONS ARE NOT UNDER NWS QUALITY CONTROL. THEY ALSO MAY NOT
  REPORT WEATHER SUCH AS PRECIPITATION OR FOG.

ILZ005-006-012>014-019>023-271000-
NORTHEAST ILLINOIS

CITY           SKY/WX    TMP DP  RH WIND       PRES   REMARKS
OHARE          LGT RAIN  68  64  87 NE5       30.07F
MIDWAY         TSTM      71  64  78 E3        30.07S FOG
AURORA         LGT RAIN  68  66  93 E5        30.06F
LANSING*       CLOUDY    69  68  96 CALM      30.06F
JOLIET*        CLOUDY    71  69  92 CALM      30.07R
WAUKEGAN       CLOUDY    68  65  90 E6        30.06F
DUPAGE AIRPORT LGT RAIN  67  64  90 E6        30.07S
WHEELING       LGT RAIN  68  64  87 CALM      30.08F
KANKAKEE*      CLOUDY    69  68  94 NW8       30.06S
MORRIS*        CLOUDY    69  68  96 CALM      30.06S
LEWIS AIRPORT* CLOUDY    69  69 100 E5        30.06F
NORTHERLY ISL    N/A     71  65  81 E7          N/A
$$

WIZ051-052-058>065-066-070>072-271000-
SOUTHEAST WISCONSIN

CITY           SKY/WX    TMP DP  RH WIND       PRES   REMARKS
MILWAUKEE      LGT RAIN  67  62  84 N9        30.11R
KENOSHA*       MOCLDY    68  64  87 E9        30.08F
RACINE*        CLOUDY    70  61  73 E8        30.10F
WAUKESHA       RAIN      61  59  94 NE7       30.13S
$$

INZ001>003-010>013-019-020-271000-
NORTHWEST INDIANA

CITY           SKY/WX    TMP DP  RH WIND       PRES   REMARKS
GARY*          CLOUDY    71  69  94 E8        30.06F
MICHIGAN CITY* NOT AVBL
RENSSELAER*    NOT AVBL
VALPARAISO     CLOUDY    68  66  93 E7        30.07F
$$

LMZ740>746-271000-
SOUTHERN LAKE MICHIGAN

STATION/POSITION TIME  SKY/WX   TEMP WIND        PRES    VSBY
                                AIR  DIR/SP/G
                 (UTC)          (F)  (DEG/KT/KT) (MB)    (MI)
HARRISON CRIB    0800            73   80/ 14/ 15   N/A
BURNHAM HARBOR   0900            70  100/  3/  9   N/A
CALUMET HARBOR   0800            71   70/  9/ 10 1017.8F
BURNS HARBOR     0805            71   80/  8/  9 1018.6F
MICHIGAN CITY    0800            69   50/  7/  8   N/A
$$

ABBREVIATIONS USED IN REMARKS
   TC - TEMPERATURE IN CELSIUS
  WCI - WIND CHILL INDEX
   HX - HEAT INDEX
  VSB - VISIBILITY
$$



USA.gov is the U.S. government's official web portal to all federal, state and local government web resources and services.